Flag for U.S.A. Weather past 2 weeks in Pocatello, Idaho, U.S.A.

Now
35 °F

Scattered clouds.


Feels Like: 30 °F
Forecast: 25 / 37 °F
Wind: 6 mph from Southwest

Location: Pocatello Regional Airport

Current Time: Jan 30, 2015 at 6:34:51 PM

Latest Report: Jan 30, 2015 at 5:53 PM


Visibility: 10 mi

Pressure: 30.16 "Hg

Humidity: 85%

Dew point: 31 °F

Location of PocatelloLocation

Historic Weather in Pocatello — Graph

°F

Pocatello temperature yesterday

Maximum temperature yesterday: 45 °F (at 2:53 PM)
Minimum temperature yesterday: 30 °F (at 10:53 PM)
Average temperature yesterday: 35 °F

Past Weeks' High & Low Weather Summary

 TemperatureHumidityPressure
High53 °F (Jan 18, 12:53 PM)100% (Jan 16, 9:53 AM)30.70 "Hg (Jan 16, 9:53 AM)
Low12 °F (Jan 22, 6:53 AM)50% (Jan 18, 11:53 AM)30.11 "Hg (Jan 18, 1:53 PM)
Average32 °F90%30.39 "Hg
* Reported Jan 15 4:53 PM — Jan 30 4:53 PM, Pocatello, Weather by CustomWeather, © 2014

Note: Actual official high and low records may vary slightly from our data, if they occured in-between our weather recording intervals... More about our weather records

Advertising

Pocatello weather history for previous 24 hours

 ConditionsComfort  
Time TempWeatherWind HumidityBarometerVisibility
4:53 PM
Jan 30
39 °FPassing clouds.6 mph73%30.16 "Hg10 mi
3:53 PM39 °FSunny.7 mph76%30.17 "Hg10 mi
2:53 PM41 °FSunny.3 mph70%30.18 "Hg10 mi
1:53 PM39 °FPassing clouds.No wind73%30.19 "Hg10 mi
12:53 PM37 °FPassing clouds.3 mph82%30.22 "Hg10 mi
11:53 AM35 °FSunny.6 mph85%30.25 "Hg10 mi
10:53 AM33 °FPassing clouds.No wind88%30.27 "Hg10 mi
9:53 AM31 °FPassing clouds.3 mph96%30.28 "Hg10 mi
8:53 AM30 °FScattered clouds.No wind100%30.27 "Hg10 mi
8:04 AM29 °FPassing clouds.No wind100%30.21 "Hg10 mi
7:53 AM29 °FPassing clouds.No wind100%30.28 "Hg10 mi
6:53 AM28 °FIce fog.No wind100%30.27 "Hg6 mi
5:53 AM29 °FClear.3 mph96%30.28 "Hg7 mi
4:53 AM29 °FIce fog.No wind100%30.28 "Hg6 mi
3:53 AM28 °FIce fog.No wind96%30.29 "Hg6 mi
2:53 AM27 °FClear.5 mph100%30.30 "Hg8 mi
1:53 AM29 °FIce fog.No wind100%30.29 "Hg6 mi
12:53 AM29 °FClear.No wind96%30.32 "Hg8 mi
11:53 PM
Jan 29
30 °FClear.No wind100%30.35 "Hg10 mi
10:53 PM30 °FClear.3 mph100%30.36 "Hg10 mi
9:53 PM31 °FClear.No wind92%30.36 "Hg10 mi
8:53 PM31 °FClear.7 mph96%30.36 "Hg10 mi
7:53 PM32 °FClear.6 mph92%30.37 "Hg10 mi
6:53 PM35 °FClear.7 mph85%30.36 "Hg10 mi
Weather by CustomWeather, © 2014

See weather overviewHow to use our weather pages